Location: Recife
(8.0585°S, 34.8848°W)
Time: 22:36:43
(UTC-03:00)

A-11 Canister half - Pass Details

Date: 16 April 2026
Orbit: 1515 x 1684 km, 47.2° (Epoch: 12 May)

Event Time Altitude Azimuth Distance (km) Brightness Sun altitude
Rises 16:26:35 0° 272° (W) 4,932 13.6 11.4°
Reaches altitude 10° 16:31:43 10° 251° (WSW) 3,947 12.4 10.1°
Maximum altitude 16:37:07 15° 218° (SW) 3,515 11.3 8.8°
Drops below altitude 10° 16:42:31 10° 185° (S) 3,922 11.1 7.5°
Sets 16:47:40 0° 164° (SSE) 4,884 11.4 6.2°
